Stations météo

réclame
Mon MeteoGroup
Huesca, Espagne (8094): Température de l'air & dewpoint: 01.08.2020 22:00:00 - 07.08.2020 22:00:00 (CEST)Huesca, Espagne (8094): Vitesse du vent: 01.08.2020 22:00:00 - 07.08.2020 22:00:00 (CEST)Huesca, Espagne (8094): Direction du vent: 01.08.2020 22:00:00 - 07.08.2020 22:00:00 (CEST)Huesca, Espagne (8094): reduced air pressure: 01.08.2020 22:00:00 - 07.08.2020 22:00:00 (CEST)Huesca, Espagne (8094): visibility: 01.08.2020 22:00:00 - 07.08.2020 22:00:00 (CEST)Huesca, Espagne (8094): Quantités de précipitations: 01.08.2020 22:00:00 - 07.08.2020 22:00:00 (CEST)
Date & Time tt [°C] td [°C] ff [km/h] ff [knt] dd ppp [hPa] vv [km] rr [mm]
07.08.2020 22:00:00 30,5 11,5 18 10 NE 1015,1 - 0,0
07.08.2020 21:00:00 31,1 11,0 13 7 ESE 1013,8 - 0,0
07.08.2020 20:00:00 34,1 10,0 13 7 SE 1012,8 - -
07.08.2020 19:00:00 37,4 8,2 5 3 SSE 1012,4 - 0,0
07.08.2020 18:00:00 38,0 7,8 9 5 SE 1011,8 - 0,0
07.08.2020 17:00:00 38,0 1,1 9 5 S 1012,4 50 -
07.08.2020 16:00:00 36,9 11,0 11 6 SSW 1013,2 - 0,0
07.08.2020 15:00:00 36,8 9,4 8 4 SE 1013,6 - 0,0
07.08.2020 14:00:00 35,7 10,7 9 5 SSE 1014,4 50 -
07.08.2020 13:00:00 34,2 11,4 9 5 SSE 1015,1 - 0,0
07.08.2020 12:00:00 32,9 11,4 8 4 SSE 1015,7 - 0,0
07.08.2020 11:00:00 31,1 12,5 9 5 SSE 1016,1 50 -
07.08.2020 10:00:00 28,0 15,3 8 4 SE 1016,5 - 0,0
07.08.2020 09:00:00 25,2 15,2 8 4 ESE 1016,6 - 0,0
07.08.2020 08:00:00 22,5 14,9 9 5 ESE 1017,1 - -
07.08.2020 07:00:00 23,2 14,5 11 6 E 1016,6 - 0,0
07.08.2020 06:00:00 23,7 14,7 13 7 E 1016,4 - 0,0
07.08.2020 05:00:00 23,0 14,6 11 6 E 1016,6 - -
07.08.2020 04:00:00 22,8 15,1 13 7 E 1016,4 - 0,0
07.08.2020 03:00:00 22,6 15,4 13 7 E 1016,9 - 0,0
07.08.2020 02:00:00 23,1 15,9 15 8 E 1016,7 - -
07.08.2020 01:00:00 23,8 16,3 16 9 E 1016,2 - 0,0
07.08.2020 00:00:00 24,3 16,0 15 8 E 1015,9 - 0,0
06.08.2020 23:00:00 25,2 12,4 11 6 E 1015,0 - -
06.08.2020 22:00:00 27,1 12,3 11 6 E 1013,8 - 0,0
06.08.2020 21:00:00 29,9 11,9 9 5 ESE 1012,6 - 0,0
06.08.2020 20:00:00 33,3 10,0 13 7 SE 1011,6 - -
06.08.2020 19:00:00 35,1 10,9 13 7 SE 1011,1 - 0,0
06.08.2020 18:00:00 35,9 11,5 9 5 SE 1011,0 - 0,0
06.08.2020 17:00:00 35,5 12,5 9 5 SE 1011,5 40 -
06.08.2020 16:00:00 34,7 11,8 9 5 ESE 1012,1 - 0,0
06.08.2020 15:00:00 34,1 13,0 9 5 SE 1012,8 - 0,0
06.08.2020 14:00:00 32,8 11,3 9 5 SE 1013,4 40 -
06.08.2020 13:00:00 31,6 12,4 8 4 SE 1014,1 - 0,0
06.08.2020 12:00:00 30,1 14,2 8 4 SSE 1014,5 - 0,0
06.08.2020 11:00:00 28,3 14,9 8 4 SE 1015,0 40 -
06.08.2020 10:00:00 26,7 15,7 11 6 SE 1015,2 - 0,0
06.08.2020 09:00:00 23,9 16,4 9 5 ESE 1015,7 - 0,0
06.08.2020 08:00:00 20,5 15,7 13 7 E 1015,7 - -
06.08.2020 07:00:00 19,5 16,0 11 6 E 1015,7 - 0,0
06.08.2020 06:00:00 19,0 16,0 11 6 E 1015,6 - 0,0
06.08.2020 05:00:00 19,4 16,1 9 5 E 1015,7 - -
06.08.2020 04:00:00 19,8 16,1 11 6 E 1015,6 - 0,0
06.08.2020 03:00:00 20,4 15,8 11 6 E 1015,5 - 0,0
06.08.2020 02:00:00 21,2 14,6 15 8 E 1015,0 - -
06.08.2020 01:00:00 21,5 8,7 11 6 E 1014,5 - 0,0
06.08.2020 00:00:00 23,3 8,6 9 5 ENE 1013,5 - 0,0
05.08.2020 23:00:00 23,8 9,0 11 6 ENE 1013,0 - -
05.08.2020 22:00:00 25,5 9,3 9 5 ESE 1011,7 - 0,0
05.08.2020 21:00:00 28,6 8,3 8 4 SSE 1010,2 - 0,0
05.08.2020 20:00:00 32,0 3,9 4 2 SSW 1009,3 - -
05.08.2020 19:00:00 32,8 4,5 5 3 WSW 1009,0 - 0,0
05.08.2020 18:00:00 32,9 4,6 8 4 SSW 1009,2 - 0,0
05.08.2020 17:00:00 32,5 4,3 5 3 SW 1009,5 50 -
05.08.2020 16:00:00 31,6 5,9 8 4 WSW 1010,1 - 0,0
05.08.2020 15:00:00 30,2 4,0 8 4 SW 1010,8 - 0,0
05.08.2020 14:00:00 29,0 7,0 9 5 SSW 1011,5 75 -
05.08.2020 13:00:00 27,9 9,2 9 5 ESE 1012,4 - 0,0
05.08.2020 12:00:00 26,0 10,6 11 6 SE 1012,8 - 0,0
05.08.2020 11:00:00 24,2 11,2 13 7 SE 1013,3 75 -
05.08.2020 10:00:00 22,0 13,1 13 7 ESE 1013,7 - 0,0
05.08.2020 09:00:00 19,2 13,4 13 7 ESE 1014,1 - 0,0
05.08.2020 08:00:00 15,8 11,4 9 5 E 1014,4 - -
05.08.2020 07:00:00 13,2 10,6 8 4 ESE 1014,8 - 0,0
05.08.2020 06:00:00 13,3 10,1 5 3 E 1014,7 - 0,0
05.08.2020 05:00:00 13,4 8,9 5 3 E 1014,7 - -
05.08.2020 04:00:00 14,8 11,0 2 1 W 1014,6 - 0,0
05.08.2020 03:00:00 15,2 10,6 2 1 NW 1014,6 - 0,0
05.08.2020 02:00:00 16,5 10,6 9 5 W 1014,3 - -
05.08.2020 01:00:00 17,7 9,1 8 4 W 1013,7 - 0,0
05.08.2020 00:00:00 19,2 8,8 8 4 W 1013,3 - 0,0
04.08.2020 23:00:00 20,2 9,1 5 3 W 1013,2 - -
04.08.2020 22:00:00 22,0 8,8 8 4 WSW 1012,0 - 0,0
04.08.2020 21:00:00 25,0 8,0 5 3 WSW 1011,0 - 0,0
04.08.2020 20:00:00 28,2 8,0 11 6 WSW 1010,1 - -
04.08.2020 19:00:00 29,7 7,6 11 6 W 1009,6 - 0,0
04.08.2020 18:00:00 30,1 8,5 15 8 WSW 1009,8 - 0,0
04.08.2020 17:00:00 30,9 9,2 11 6 SW 1009,9 70 -
04.08.2020 16:00:00 30,6 8,9 9 5 SW 1010,5 - 0,0
04.08.2020 15:00:00 28,9 8,6 11 6 WSW 1011,5 - 0,0
04.08.2020 14:00:00 28,3 8,0 9 5 W 1012,3 70 -
04.08.2020 13:00:00 27,2 8,1 11 6 W 1012,8 - 0,0
04.08.2020 12:00:00 25,2 10,6 8 4 WNW 1013,6 - 0,0
04.08.2020 11:00:00 22,9 10,7 8 4 WSW 1014,6 70 -
04.08.2020 10:00:00 20,0 12,0 8 4 W 1015,4 - 0,0
04.08.2020 09:00:00 17,2 11,0 8 4 WNW 1015,5 - 0,0
04.08.2020 08:00:00 15,4 10,8 5 3 W 1015,5 - -
04.08.2020 07:00:00 13,6 10,0 5 3 WNW 1015,7 - 0,0
04.08.2020 06:00:00 13,6 10,6 5 3 WNW 1015,3 - 0,0
04.08.2020 05:00:00 14,2 10,4 5 3 WNW 1015,0 - -
04.08.2020 04:00:00 14,4 10,4 8 4 W 1015,0 - 0,0
04.08.2020 03:00:00 15,3 10,3 4 2 WSW 1014,9 - 0,0
04.08.2020 02:00:00 16,9 9,8 5 3 W 1014,4 - -
04.08.2020 01:00:00 18,0 9,6 9 5 W 1013,9 - 0,0
04.08.2020 00:00:00 18,6 9,4 8 4 SW 1013,4 - 0,0
03.08.2020 23:00:00 20,0 9,0 5 3 NW 1012,3 - -
03.08.2020 22:00:00 21,0 9,3 11 6 WNW 1011,5 - 0,0
03.08.2020 21:00:00 23,3 9,3 11 6 WNW 1010,2 - 0,0
03.08.2020 20:00:00 26,3 9,2 15 8 WNW 1008,9 - -
03.08.2020 19:00:00 28,5 8,7 13 7 WNW 1008,1 - 0,0
03.08.2020 18:00:00 30,2 9,1 13 7 W 1007,8 - 0,0
03.08.2020 17:00:00 30,6 7,7 15 8 W 1008,0 75 -
03.08.2020 16:00:00 30,9 9,2 11 6 W 1008,2 - 0,0
03.08.2020 15:00:00 30,2 7,4 9 5 W 1009,2 - 0,0
03.08.2020 14:00:00 29,3 7,2 11 6 W 1010,1 75 -
03.08.2020 13:00:00 27,8 7,1 9 5 W 1011,0 - 0,0
03.08.2020 12:00:00 25,9 7,5 11 6 W 1012,0 - 0,0
03.08.2020 11:00:00 23,9 7,5 9 5 W 1012,8 75 -
03.08.2020 10:00:00 21,3 8,9 8 4 W 1013,2 - 0,0
03.08.2020 09:00:00 18,8 9,3 5 3 WSW 1013,6 - 0,0
03.08.2020 08:00:00 17,1 9,0 4 2 W 1013,5 - -
03.08.2020 07:00:00 15,5 8,7 5 3 W 1013,9 - 0,0
03.08.2020 06:00:00 16,3 9,2 9 5 W 1013,9 - 0,0
03.08.2020 05:00:00 17,0 9,7 8 4 W 1014,1 - -
03.08.2020 04:00:00 17,1 9,8 8 4 W 1013,9 - 0,0
03.08.2020 03:00:00 17,3 9,9 8 4 W 1014,1 - 0,0
03.08.2020 02:00:00 17,7 10,1 9 5 W 1013,9 - -
03.08.2020 01:00:00 17,8 10,4 11 6 W 1014,2 - 0,0
03.08.2020 00:00:00 18,4 10,2 8 4 W 1014,4 - 0,0
02.08.2020 23:00:00 19,5 10,2 8 4 W 1014,1 - -
02.08.2020 22:00:00 21,1 11,1 11 6 W 1013,2 - 0,0
02.08.2020 21:00:00 23,1 11,2 9 5 W 1012,3 - 0,0
02.08.2020 20:00:00 24,6 11,5 11 6 NW 1011,1 - -
02.08.2020 19:00:00 26,7 13,1 11 6 WNW 1010,8 - 0,0
02.08.2020 18:00:00 29,4 13,2 13 7 WNW 1010,6 - 0,0
02.08.2020 17:00:00 29,7 13,5 13 7 W 1010,7 75 -
02.08.2020 16:00:00 31,8 14,0 13 7 WSW 1010,6 - 0,0
02.08.2020 15:00:00 31,2 14,4 11 6 W 1011,6 - 0,0
02.08.2020 14:00:00 29,7 14,7 15 8 WSW 1012,6 70 -
02.08.2020 13:00:00 29,3 14,7 11 6 WSW 1013,1 - 0,0
02.08.2020 12:00:00 27,4 14,4 9 5 W 1013,9 - 0,0
02.08.2020 11:00:00 24,7 14,5 8 4 W 1014,5 70 -
02.08.2020 10:00:00 22,1 14,7 5 3 WSW 1015,4 - 0,0
02.08.2020 09:00:00 20,1 14,7 4 2 WNW 1015,7 - 0,0
02.08.2020 08:00:00 18,3 14,8 5 3 WSW 1015,9 - -
02.08.2020 07:00:00 16,5 14,0 5 3 WSW 1016,0 - 0,0
02.08.2020 06:00:00 16,9 14,7 8 4 W 1015,4 - 0,0
02.08.2020 05:00:00 17,4 14,9 11 6 W 1015,0 - -
02.08.2020 04:00:00 17,8 14,7 11 6 WNW 1015,0 - 0,0
02.08.2020 03:00:00 18,5 13,6 8 4 W 1015,2 - 0,0
02.08.2020 02:00:00 19,0 14,0 8 4 W 1015,8 - -
02.08.2020 01:00:00 20,1 14,0 9 5 W 1015,8 - 0,0
02.08.2020 00:00:00 21,3 14,0 11 6 W 1015,3 - 0,0
01.08.2020 23:00:00 23,0 14,6 8 4 WNW 1014,3 - -
01.08.2020 22:00:00 24,5 14,9 8 4 WNW 1013,3 - 0,0

tt = Température de l'air
td = dewpoint
ff = Vitesse du vent
dd = Direction du vent
ppp = reduced air pressure
vv = visibility
rr = Quantités de précipitations

stations d'obs. à proximité